[[{"header":{"parameterUnit":"m.s-1","parameterCategory":1,"la1":30.2992,"la2":30.254,"lo1":-89.0895,"lo2":-89.0443,"dy":0.0025,"dx":0.0025,"nx":19,"ny":19,"refTime":"2026-05-04T21:00:00:Z","depth":0,"parameterNumber":2,"parameterNumberName":"U-component_of_WINDS"},"data":[0,0,0,0.4241,0.424,0.4163,0.4162,0.4079,0.4078,0,0,0,0,0,0,0,0,0,0,0,0.4276,0.4276,0.4241,0.424,0.4163,0.4162,0.4079,0.4078,0,0,0,0,0,0,0,0,0,0,0,0.4276,0.4276,0.4275,0.4239,0.4163,0.4162,0.4079,0.4131,0,0,0,0,0,0,0,0,0,0,0.4203,0.4248,0.4276,0.4275,0.4239,0.4163,0.4162,0.4134,0.4128,0.4121,0,0.412,0,0.4098,0.4074,0.4074,0,0,0,0.423,0.4252,0.4221,0.4275,0.4238,0.4163,0.4195,0.413,0.4124,0.4114,0.4119,0.4115,0.4097,0.4074,0.4073,0.4069,0.4069,0,0,0.4235,0.4268,0.4225,0.4218,0.4233,0.4197,0.4192,0.4126,0.4133,0.4119,0.4113,0.4096,0.4073,0.4073,0.4068,0.4069,0,0,0,0.4253,0.4271,0.4241,0.4222,0.4207,0.4195,0.419,0.4136,0.4123,0.4112,0.4095,0.4073,0.4072,0.4068,0.4069,0.4121,0,0,0,0.4255,0.4282,0.4243,0.4263,0.4208,0.4171,0.4201,0.4128,0.412,0.4095,0.4073,0.4071,0.4067,0.4068,0.4119,0.414,0,0,0,0.4277,0.4284,0.4277,0.4265,0.4233,0.4171,0.4154,0.4125,0.4109,0.4074,0.4071,0.4067,0.4068,0.4117,0.4137,0.4148,0,0,0,0.4309,0.4325,0.4279,0.429,0.4234,0.4205,0.4155,0.4131,0.4107,0.4073,0.4068,0.4069,0.4116,0.4134,0.4146,0.4163,0.4174,0,0,0.4348,0.4331,0.4335,0.4291,0.4279,0.4214,0.4209,0.4155,0.412,0.4087,0.4087,0.412,0.4136,0.4148,0.4223,0.4232,0,0,0,0.4358,0.4362,0.4351,0.4331,0.429,0.4257,0.42,0.418,0.415,0.4111,0.4126,0.4135,0.414,0.4147,0.4154,0.4156,0.4073,0.4073,0.4073,0.4461,0.4417,0.442,0.4366,0.4346,0.4287,0.4266,0.4228,0.4189,0.4193,0.4183,0.4235,0.4244,0.4249,0.4251,0.4189,0.4189,0.4189,0.4189,0.4513,0.451,0.4458,0.4442,0.4394,0.4379,0.4322,0.4294,0.4272,0.4239,0.4241,0.4209,0.426,0.4259,0.4193,0.4192,0.4192,0.4192,0.4191,0.4575,0.4566,0.4541,0.4506,0.4483,0.4427,0.4408,0.4364,0.4323,0.4326,0.4309,0.4308,0.4301,0.4321,0.4321,0.4322,0.4322,0.4322,0.4322,0.4648,0.4619,0.4609,0.4568,0.4548,0.4516,0.4456,0.4434,0.4399,0.4368,0.4368,0.4327,0.4274,0.4261,0.4324,0.4324,0.4324,0.4323,0.4323,0.4716,0.4694,0.4679,0.466,0.4606,0.4585,0.453,0.4489,0.4465,0.4456,0.4415,0.4383,0.4362,0.4356,0.4345,0.4426,0.4426,0.4426,0.4426,0.4768,0.4753,0.4728,0.4699,0.4665,0.4614,0.4595,0.4548,0.4495,0.4477,0.4458,0.444,0.4436,0.4417,0.441,0.4399,0.4491,0.4491,0.4492,0.4806,0.4787,0.4781,0.473,0.4685,0.4645,0.4626,0.4593,0.4528,0.4493,0.4461,0.4458,0.4428,0.4421,0.4386,0.4375,0.4353,0,0]},{"header":{"parameterUnit":"m.s-1","parameterCategory":1,"la1":30.2992,"la2":30.254,"lo1":-89.0895,"lo2":-89.0443,"dy":0.0025,"dx":0.0025,"nx":19,"ny":19,"refTime":"2026-05-04T21:00:00:Z","depth":0,"parameterNumber":3,"parameterNumberName":"V-component_of_WINDS"},"data":[0,0,0,5.087,5.0872,5.0976,5.0977,5.1115,5.1117,0,0,0,0,0,0,0,0,0,0,0,5.0846,5.0847,5.087,5.0873,5.0976,5.0977,5.1115,5.1117,0,0,0,0,0,0,0,0,0,0,0,5.0846,5.0847,5.0849,5.0873,5.0976,5.0977,5.1115,5.1033,0,0,0,0,0,0,0,0,0,0,5.0931,5.0917,5.0847,5.0849,5.0874,5.0976,5.0977,5.1029,5.1039,5.1072,0,5.1107,0,5.1114,5.1127,5.1127,0,0,0,5.0866,5.091,5.0932,5.0849,5.0875,5.0976,5.0928,5.1034,5.1045,5.1084,5.1109,5.1114,5.1117,5.1128,5.1129,5.1351,5.1352,0,0,5.086,5.0868,5.0925,5.0939,5.0927,5.0924,5.0931,5.1041,5.1066,5.1109,5.1117,5.1119,5.1129,5.113,5.135,5.1351,0,0,0,5.0848,5.0864,5.0883,5.0933,5.0952,5.0928,5.0935,5.1061,5.1067,5.1118,5.1121,5.113,5.1131,5.1348,5.135,5.1426,0,0,0,5.0844,5.0857,5.0881,5.0886,5.095,5.1009,5.0954,5.106,5.1072,5.112,5.113,5.1133,5.1347,5.1349,5.1421,5.146,0,0,0,5.0837,5.0856,5.0874,5.0887,5.0932,5.1007,5.1019,5.1062,5.1074,5.1127,5.1133,5.1346,5.1349,5.1416,5.1452,5.1522,0,0,0,5.083,5.0937,5.0875,5.0996,5.0931,5.1054,5.1018,5.1108,5.1163,5.113,5.1347,5.135,5.1415,5.1448,5.1517,5.1583,5.1611,0,0,5.0969,5.0954,5.1025,5.0972,5.1108,5.1037,5.1183,5.1224,5.122,5.1307,5.1312,5.1422,5.1452,5.1521,5.1764,5.1786,0,0,0,5.1071,5.1122,5.1156,5.1211,5.1248,5.1281,5.13,5.1315,5.1389,5.1267,5.1465,5.1483,5.1523,5.1554,5.1573,5.1607,5.1365,5.1364,5.1364,5.1279,5.1272,5.1387,5.1392,5.1445,5.1464,5.1505,5.1528,5.1502,5.1549,5.1576,5.1724,5.1761,5.1775,5.1811,5.1608,5.1609,5.1609,5.1609,5.1484,5.1555,5.152,5.162,5.161,5.1692,5.1714,5.1693,5.1766,5.1704,5.1739,5.1672,5.18,5.1831,5.1615,5.1614,5.1613,5.1613,5.1612,5.162,5.1653,5.1671,5.175,5.1811,5.181,5.1883,5.187,5.1857,5.1892,5.1918,5.1917,5.1915,5.1905,5.1906,5.1906,5.1907,5.1907,5.1908,5.1755,5.1773,5.1839,5.1887,5.1921,5.1963,5.1982,5.2014,5.2045,5.2029,5.2029,5.1999,5.1815,5.1769,5.1916,5.1914,5.1913,5.1912,5.1912,5.1967,5.1917,5.2018,5.2053,5.2108,5.2169,5.2151,5.2216,5.224,5.2276,5.2238,5.2104,5.2086,5.2071,5.2034,5.2239,5.2239,5.224,5.224,5.2083,5.2073,5.2174,5.223,5.2281,5.2276,5.2388,5.2404,5.2411,5.2425,5.2393,5.2341,5.2326,5.2318,5.2297,5.2262,5.2521,5.2521,5.2522,5.2213,5.2208,5.2308,5.2318,5.236,5.2396,5.2501,5.2563,5.256,5.2533,5.2435,5.2424,5.234,5.2314,5.2285,5.2253,5.2188,0,0]}]]